| time (UTC) | temp F | wind direction | speed knots | gust knots | rain 1hr in | rain 24hr in | rain mn in | humidity % | barometer mb |
| 20260503011513 | 84 | 214 | 0.9 | 3.5 | 0.00 | 0.00 | 0.00 | 32 | 936.9 |
| 20260503010015 | 85 | 230 | 0.9 | 2.6 | 0.00 | 0.00 | 0.00 | 28 | 936.9 |
| 20260503004521 | 86 | 202 | 0.9 | 3.5 | 0.00 | 0.00 | 0.00 | 27 | 917.4 |
| 20260503003011 | 86 | 221 | 0.9 | 3.5 | 0.00 | 0.00 | 0.00 | 26 | 917.4 |
| 20260503001509 | 86 | 204 | 0.9 | 4.3 | 0.00 | 0.00 | 0.00 | 25 | 928.2 |
| 20260503000006 | 86 | 227 | 1.7 | 3.5 | 0.00 | 0.00 | 0.00 | 27 | 922.6 |
| 20260502234506 | 87 | 225 | 1.7 | 3.5 | 0.00 | 0.00 | 0.00 | 26 | 963.3 |
| 20260502233009 | 87 | 213 | 1.7 | 3.5 | 0.00 | 0.00 | 0.00 | 27 | 957.0 |
| 20260502231504 | 87 | 220 | 1.7 | 6.1 | 0.00 | 0.00 | 0.00 | 28 | 965.3 |
| 20260502230034 | 88 | 186 | 0.9 | 3.5 | 0.00 | 0.00 | 0.00 | 28 | 965.3 |
| 20260502224533 | 88 | 231 | 1.7 | 4.3 | 0.00 | 0.00 | 0.00 | 29 | 965.3 |
| 20260502223036 | 89 | 216 | 1.7 | 3.5 | 0.00 | 0.00 | 0.00 | 29 | 965.3 |
| 20260502221530 | 89 | 216 | 0.9 | 4.3 | 0.00 | 0.00 | 0.00 | 30 | 964.7 |
| 20260502220029 | 89 | 189 | 1.7 | 3.5 | 0.00 | 0.00 | 0.00 | 30 | 977.0 |
| 20260502214529 | 89 | 200 | 2.6 | 4.3 | 0.00 | 0.00 | 0.00 | 30 | 977.0 |
| 20260502213127 | 89 | 194 | 0.9 | 3.5 | 0.00 | 0.00 | 0.00 | 31 | 974.8 |
| 20260502211627 | 89 | 186 | 1.7 | 4.3 | 0.00 | 0.00 | 0.00 | 32 | 988.3 |
| 20260502210056 | 88 | 167 | 2.6 | 4.3 | 0.00 | 0.00 | 0.00 | 36 | 988.3 |
| 20260502204549 | 87 | 188 | 0.9 | 3.5 | 0.00 | 0.00 | 0.00 | 38 | 988.3 |
| 20260502203054 | 87 | 148 | 0.9 | 3.5 | 0.00 | 0.00 | 0.00 | 39 | 994.4 |
| 20260502201547 | 87 | 209 | 1.7 | 3.5 | 0.00 | 0.00 | 0.00 | 40 | 984.6 |
| 20260502200043 | 86 | 214 | 1.7 | 4.3 | 0.00 | 0.00 | 0.00 | 44 | 998.3 |
| 20260502194512 | 86 | 172 | 1.7 | 4.3 | 0.00 | 0.00 | 0.00 | 46 | 992.6 |
| 20260502193011 | 86 | 204 | 1.7 | 3.5 | 0.00 | 0.00 | 0.00 | 47 | 993.1 |
| 20260502191540 | 85 | 214 | 0.9 | 5.2 | 0.00 | 0.00 | 0.00 | 51 | 987.6 |
| 20260502190042 | 86 | 198 | 0.9 | 4.3 | 0.00 | 0.00 | 0.00 | 48 | 987.6 |
| 20260502184508 | 85 | 167 | 0.9 | 3.5 | 0.00 | 0.00 | 0.00 | 50 | 991.7 |
| 20260502183006 | 85 | 201 | 1.7 | 3.5 | 0.00 | 0.00 | 0.00 | 50 | 985.2 |
| 20260502181600 | 84 | 121 | 1.7 | 3.5 | 0.00 | 0.00 | 0.00 | 56 | 984.4 |
| 20260502163041 | 81 | 146 | 0.9 | 3.5 | 0.00 | 0.00 | 0.00 | 65 | 1000.1 |
| 20260502161528 | 81 | 112 | 1.7 | 3.5 | 0.00 | 0.00 | 0.00 | 65 | 997.3 |
| 20260502151619 | 79 | 156 | 0.9 | 2.6 | 0.00 | 0.00 | 0.00 | 69 | 1003.9 |
| 20260502123027 | 73 | 23 | 0.0 | 0.0 | 0.00 | 0.00 | 0.00 | 71 | 1000.3 |
| 20260502121526 | 74 | 338 | 0.0 | 0.9 | 0.00 | 0.00 | 0.00 | 70 | 1001.9 |
| 20260502114524 | 74 | 338 | 0.0 | 0.0 | 0.00 | 0.00 | 0.00 | 70 | 998.4 |
| 20260502113026 | 74 | 337 | 0.0 | 0.0 | 0.00 | 0.00 | 0.00 | 69 | 998.8 |
| 20260502111520 | 75 | 337 | 0.0 | 1.7 | 0.00 | 0.00 | 0.00 | 68 | 992.3 |
| 20260502110020 | 75 | 337 | 0.0 | 0.0 | 0.00 | 0.00 | 0.00 | 67 | 993.0 |
| 20260502104523 | 75 | 338 | 0.0 | 0.0 | 0.00 | 0.00 | 0.00 | 68 | 973.3 |
| 20260502103018 | 75 | 338 | 0.0 | 1.7 | 0.00 | 0.00 | 0.00 | 68 | 973.3 |
| 20260502101539 | 74 | 338 | 0.0 | 0.0 | 0.00 | 0.00 | 0.00 | 68 | 974.3 |
| 20260502091512 | 74 | 350 | 0.0 | 2.6 | 0.00 | 0.00 | 0.00 | 65 | 986.7 |
| 20260502070120 | 74 | 353 | 0.0 | 1.7 | 0.00 | 0.00 | 0.00 | 64 | 956.7 |
| 20260502064557 | 75 | 353 | 0.9 | 2.6 | 0.00 | 0.00 | 0.00 | 63 | 960.0 |
| 20260502063058 | 76 | 353 | 0.0 | 2.6 | 0.00 | 0.00 | 0.00 | 66 | 941.1 |
| 20260502061559 | 75 | 354 | 1.7 | 4.3 | 0.00 | 0.00 | 0.00 | 66 | 911.7 |
| 20260502060051 | 75 | 21 | 0.0 | 2.6 | 0.00 | 0.00 | 0.00 | 65 | 911.7 |
| 20260502054555 | 75 | 42 | 0.0 | 2.6 | 0.00 | 0.00 | 0.00 | 67 | 915.5 |
| 20260502053048 | 76 | 50 | 0.0 | 0.0 | 0.00 | 0.00 | 0.00 | 68 | 912.2 |
| 20260502051604 | 76 | 51 | 0.0 | 3.5 | 0.00 | 0.00 | 0.00 | 69 | 912.2 |
| 20260502050045 | 76 | 66 | 0.9 | 2.6 | 0.00 | 0.00 | 0.00 | 68 | 849.3 |
| 20260502044546 | 76 | 69 | 0.9 | 3.5 | 0.00 | 0.00 | 0.00 | 65 | 849.3 |
| 20260502043047 | 77 | 69 | 0.0 | 0.0 | 0.00 | 0.00 | 0.00 | 71 | 849.3 |
| 20260502041543 | 77 | 68 | 0.0 | 1.7 | 0.00 | 0.00 | 0.00 | 69 | 866.2 |
| 20260502040046 | 76 | 68 | 0.0 | 0.0 | 0.00 | 0.00 | 0.00 | 59 | 866.2 |
| 20260502034536 | 76 | 69 | 0.0 | 2.6 | 0.00 | 0.00 | 0.00 | 58 | 822.0 |
| 20260502033034 | 76 | 68 | 0.9 | 2.6 | 0.00 | 0.00 | 0.00 | 58 | 832.7 |
| 20260502031532 | 77 | 68 | 0.0 | 1.7 | 0.00 | 0.00 | 0.00 | 65 | 832.7 |
| 20260502030028 | 78 | 68 | 0.0 | 0.0 | 0.00 | 0.00 | 0.00 | 70 | 802.1 |
| 20260502024533 | 78 | 69 | 0.0 | 0.0 | 0.00 | 0.00 | 0.00 | 70 | 802.1 |
| 20260502023026 | 78 | 69 | 0.0 | 0.0 | 0.00 | 0.00 | 0.00 | 69 | 810.3 |
| 20260502021526 | 78 | 69 | 0.0 | 3.5 | 0.00 | 0.00 | 0.00 | 69 | 802.3 |
| 20260502020107 | 79 | 45 | 1.7 | 5.2 | 0.00 | 0.00 | 0.00 | 68 | 802.3 |
| 20260502014555 | 79 | 57 | 0.9 | 4.3 | 0.00 | 0.00 | 0.00 | 66 | 792.1 |
| 20260502013103 | 80 | 73 | 1.7 | 4.3 | 0.00 | 0.00 | 0.00 | 62 | 792.1 |